JBU1760 MKJP-KJFK

Flight info

Callsign JBU1760
Flight time N/A
Altitude 18000
Route LEXUV5 RADOK UT172 BEMOL UL417 LENAX UL795 ALTIB UM779 ZEUSS Y217 OCTAL/N0461F360 MATLK Q87 ZERBO/N0460F350 Q87 JROSS/N0447F370 JOHAR Q109 DFENC SAWED Q108 BYSEL RADDS SIE CAMRN5
Aircraft A320/M-SDE3FGHIRWY/LB1

Departure

Time N/A
Airport Norman Manley International Airport (MKJP)

Arrival

Time 2026-05-08 02:24
Airport John F. Kennedy International Airport (KJFK)
Time Latitude Longitude Altitude Speed Heading
2026-05-08 01:56 38.96277 -74.92076 31355 ft 514 kts 27°
2026-05-08 01:57 38.99169 -74.89455 30752 ft 514 kts 27°
2026-05-08 01:57 39.03075 -74.85909 29974 ft 513 kts 27°
2026-05-08 01:57 39.05993 -74.83261 29351 ft 513 kts 27°
2026-05-08 01:57 39.08898 -74.80614 28757 ft 513 kts 28°
2026-05-08 01:58 39.10773 -74.78738 28353 ft 515 kts 31°
2026-05-08 01:58 39.13545 -74.75796 27752 ft 515 kts 32°
2026-05-08 01:58 39.16274 -74.72825 27149 ft 513 kts 33°
2026-05-08 01:58 39.18989 -74.69839 26525 ft 512 kts 33°
2026-05-08 01:59 39.21697 -74.66872 25930 ft 509 kts 32°
2026-05-08 01:59 39.24406 -74.63936 25349 ft 505 kts 32°
2026-05-08 01:59 39.27093 -74.61042 24757 ft 502 kts 32°
2026-05-08 01:59 39.29740 -74.58192 24169 ft 499 kts 32°
2026-05-08 02:00 39.32433 -74.55279 23572 ft 495 kts 32°
2026-05-08 02:00 39.35022 -74.52462 23009 ft 491 kts 32°
2026-05-08 02:00 39.37621 -74.49621 22452 ft 485 kts 32°
2026-05-08 02:00 39.40220 -74.46781 21855 ft 480 kts 33°
2026-05-08 02:01 39.42723 -74.44054 21299 ft 474 kts 33°
2026-05-08 02:01 39.45222 -74.41335 20758 ft 468 kts 33°
2026-05-08 02:01 39.47705 -74.38628 20218 ft 462 kts 33°
2026-05-08 02:01 39.50149 -74.35954 19693 ft 456 kts 33°
2026-05-08 02:02 39.52559 -74.33315 19156 ft 451 kts 33°
2026-05-08 02:02 39.54943 -74.30701 18615 ft 446 kts 34°
2026-05-08 02:02 39.57308 -74.28109 18145 ft 440 kts 34°
2026-05-08 02:02 39.59621 -74.25569 17904 ft 430 kts 34°
2026-05-08 02:03 39.61897 -74.23071 17885 ft 428 kts 34°
2026-05-08 02:03 39.64141 -74.20610 17880 ft 428 kts 34°
2026-05-08 02:03 39.66446 -74.18081 17880 ft 428 kts 34°
2026-05-08 02:03 39.68689 -74.15610 17864 ft 427 kts 34°
2026-05-08 02:04 39.70957 -74.13106 17759 ft 426 kts 34°
2026-05-08 02:04 39.73206 -74.10620 17292 ft 423 kts 34°
2026-05-08 02:04 39.75455 -74.08134 16459 ft 427 kts 35°
2026-05-08 02:04 39.77750 -74.05608 15366 ft 437 kts 36°
2026-05-08 02:05 39.80086 -74.03035 14474 ft 441 kts 36°
2026-05-08 02:05 39.82416 -74.00452 13972 ft 437 kts 36°
2026-05-08 02:05 39.84778 -73.98067 13678 ft 421 kts 27°
2026-05-08 02:05 39.87276 -73.96144 13177 ft 415 kts 23°
2026-05-08 02:06 39.89825 -73.94384 12588 ft 413 kts 21°
2026-05-08 02:06 39.92329 -73.92718 12280 ft 404 kts 21°
2026-05-08 02:06 39.94783 -73.91053 12103 ft 392 kts 21°
2026-05-08 02:06 39.97149 -73.89386 11954 ft 381 kts 22°
2026-05-08 02:07 39.99447 -73.87727 11823 ft 371 kts 22°
2026-05-08 02:07 40.01672 -73.86119 11698 ft 361 kts 22°
2026-05-08 02:07 40.03847 -73.84554 11571 ft 352 kts 22°
2026-05-08 02:07 40.05966 -73.83026 11409 ft 344 kts 20°
2026-05-08 02:08 40.08092 -73.81622 11130 ft 340 kts 18°
2026-05-08 02:08 40.10208 -73.80290 11020 ft 336 kts 18°
2026-05-08 02:08 40.12322 -73.78974 11022 ft 336 kts 17°
2026-05-08 02:08 40.14410 -73.77678 11021 ft 336 kts 17°
2026-05-08 02:09 40.16550 -73.76349 11016 ft 336 kts 17°
2026-05-08 02:09 40.18629 -73.75060 11012 ft 336 kts 17°
2026-05-08 02:09 40.20744 -73.73748 11012 ft 336 kts 17°
2026-05-08 02:09 40.22850 -73.72441 10966 ft 333 kts 17°
2026-05-08 02:10 40.24936 -73.71143 10668 ft 331 kts 17°
2026-05-08 02:10 40.27012 -73.69851 10307 ft 329 kts 17°
2026-05-08 02:10 40.29071 -73.68568 9989 ft 326 kts 17°
2026-05-08 02:10 40.31114 -73.67294 9675 ft 323 kts 17°
2026-05-08 02:11 40.33136 -73.66033 9357 ft 320 kts 17°
2026-05-08 02:11 40.35131 -73.64791 9058 ft 316 kts 17°
2026-05-08 02:11 40.37112 -73.63560 8746 ft 313 kts 17°
2026-05-08 02:11 40.39070 -73.62346 8434 ft 310 kts 17°
2026-05-08 02:12 40.40986 -73.61163 8119 ft 307 kts 17°
2026-05-08 02:12 40.42900 -73.59986 7803 ft 304 kts 17°
2026-05-08 02:12 40.44819 -73.58809 7488 ft 301 kts 17°
2026-05-08 02:12 40.46711 -73.57651 7171 ft 298 kts 17°
2026-05-08 02:13 40.48585 -73.56507 6854 ft 295 kts 17°
2026-05-08 02:13 40.50441 -73.55376 6538 ft 293 kts 17°
2026-05-08 02:13 40.52284 -73.54256 6221 ft 290 kts 17°
2026-05-08 02:13 40.54113 -73.53146 5902 ft 288 kts 17°
2026-05-08 02:14 40.55924 -73.52049 5588 ft 285 kts 17°
2026-05-08 02:14 40.57717 -73.50969 5278 ft 282 kts 17°
2026-05-08 02:14 40.59503 -73.49899 4969 ft 280 kts 17°
2026-05-08 02:14 40.61266 -73.48852 4662 ft 277 kts 17°
2026-05-08 02:15 40.63016 -73.47821 4388 ft 273 kts 17°
2026-05-08 02:15 40.64735 -73.46819 4139 ft 268 kts 18°
2026-05-08 02:15 40.66409 -73.45858 3888 ft 263 kts 18°
2026-05-08 02:15 40.68095 -73.44912 3621 ft 258 kts 18°
2026-05-08 02:16 40.69722 -73.44033 3345 ft 253 kts 16°
2026-05-08 02:16 40.71420 -73.43661 3046 ft 244 kts 354°
2026-05-08 02:16 40.73021 -73.44310 2986 ft 243 kts 329°
2026-05-08 02:16 40.74340 -73.45637 2997 ft 232 kts 319°
2026-05-08 02:17 40.75496 -73.47020 2992 ft 217 kts 317°
2026-05-08 02:17 40.76560 -73.48340 2987 ft 203 kts 317°
2026-05-08 02:17 40.77556 -73.49576 2985 ft 190 kts 317°
2026-05-08 02:17 40.78490 -73.50730 2983 ft 178 kts 317°
2026-05-08 02:18 40.79391 -73.51828 2989 ft 176 kts 317°
2026-05-08 02:18 40.80293 -73.52918 2990 ft 176 kts 317°
2026-05-08 02:18 40.81129 -73.54086 2981 ft 176 kts 300°
2026-05-08 02:18 40.81429 -73.55647 2993 ft 180 kts 273°
2026-05-08 02:19 40.81356 -73.57275 3000 ft 180 kts 268°
2026-05-08 02:19 40.81224 -73.58946 2998 ft 181 kts 267°
2026-05-08 02:19 40.81087 -73.60575 2996 ft 180 kts 267°
2026-05-08 02:19 40.80870 -73.62202 2983 ft 183 kts 250°
2026-05-08 02:20 40.80008 -73.63457 2989 ft 193 kts 214°
2026-05-08 02:20 40.78822 -73.64289 3005 ft 193 kts 213°
2026-05-08 02:20 40.77660 -73.65169 2916 ft 192 kts 215°
2026-05-08 02:20 40.76522 -73.66092 2711 ft 192 kts 215°
2026-05-08 02:21 40.75383 -73.66995 2508 ft 189 kts 213°
2026-05-08 02:21 40.74252 -73.67870 2251 ft 188 kts 212°
2026-05-08 02:21 40.73135 -73.68752 1990 ft 183 kts 210°
2026-05-08 02:21 40.72063 -73.69584 1758 ft 173 kts 212°
2026-05-08 02:22 40.71089 -73.70346 1542 ft 155 kts 213°
2026-05-08 02:22 40.70200 -73.71044 1327 ft 143 kts 213°
2026-05-08 02:22 40.69366 -73.71699 1146 ft 141 kts 212°
2026-05-08 02:22 40.68527 -73.72356 956 ft 139 kts 212°
2026-05-08 02:23 40.67696 -73.73006 770 ft 139 kts 211°
2026-05-08 02:23 40.66868 -73.73655 585 ft 138 kts 210°
2026-05-08 02:23 40.66045 -73.74299 402 ft 136 kts 209°
2026-05-08 02:23 40.65247 -73.74924 224 ft 133 kts 209°
2026-05-08 02:24 40.64454 -73.75542 54 ft 132 kts 209°
2026-05-08 02:24 40.63737 -73.76100 27 ft 97 kts 209°
2026-05-08 02:24 40.63305 -73.76439 27 ft 49 kts 210°
2026-05-08 02:24 40.63112 -73.76590 27 ft 27 kts 210°
2026-05-08 02:25 40.63012 -73.76704 27 ft 18 kts 241°
2026-05-08 02:25 40.62965 -73.76816 27 ft 11 kts 240°
2026-05-08 02:25 40.62926 -73.76913 27 ft 13 kts 255°
2026-05-08 02:25 40.62945 -73.77020 27 ft 12 kts 293°
2026-05-08 02:26 40.62992 -73.77080 27 ft 8 kts 354°
2026-05-08 02:26 40.63043 -73.77048 27 ft 9 kts 30°
2026-05-08 02:26 40.63108 -73.76999 27 ft 12 kts 30°
2026-05-08 02:26 40.63188 -73.76943 27 ft 13 kts 14°
2026-05-08 02:27 40.63283 -73.76948 27 ft 15 kts 359°
2026-05-08 02:27 40.63400 -73.76937 27 ft 18 kts
2026-05-08 02:27 40.63523 -73.76916 27 ft 18 kts
2026-05-08 02:27 40.63655 -73.76917 27 ft 20 kts
2026-05-08 02:28 40.63807 -73.76914 27 ft 23 kts
2026-05-08 02:28 40.63971 -73.76911 27 ft 21 kts
2026-05-08 02:28 40.64103 -73.76898 27 ft 19 kts
2026-05-08 02:28 40.64217 -73.76892 27 ft 16 kts 358°
2026-05-08 02:29 40.64315 -73.76894 27 ft 12 kts
2026-05-08 02:29 40.64382 -73.76896 27 ft 6 kts 316°
2026-05-08 02:29 40.64403 -73.76962 27 ft 9 kts 289°
2026-05-08 02:29 40.64423 -73.77047 27 ft 10 kts 283°
2026-05-08 02:30 40.64440 -73.77138 27 ft 11 kts 284°
2026-05-08 02:30 40.64464 -73.77215 27 ft 5 kts 303°
2026-05-08 02:30 40.64490 -73.77246 27 ft 4 kts 352°
2026-05-08 02:30 40.64521 -73.77249 27 ft 5 kts 357°
2026-05-08 02:31 40.64543 -73.77250 27 ft 0 kts 359°